Year,Month,Day,Hour,Minute,Value (Times are PST for temperature in C)
2017,02,16,00,00,10.30
2017,02,16,00,01,10.40
2017,02,16,00,02,10.40
2017,02,16,00,03,10.40
2017,02,16,00,04,10.40
2017,02,16,00,05,10.40
2017,02,16,00,06,10.40
2017,02,16,00,07,10.40
2017,02,16,00,08,10.40
2017,02,16,00,09,10.40
2017,02,16,00,10,10.40
2017,02,16,00,11,10.40
2017,02,16,00,12,10.40
2017,02,16,00,13,10.50
2017,02,16,00,14,10.50
2017,02,16,00,15,10.60
2017,02,16,00,16,10.60
2017,02,16,00,17,10.60
2017,02,16,00,18,10.60
2017,02,16,00,19,10.60
2017,02,16,00,20,10.70
2017,02,16,00,21,10.70
2017,02,16,00,22,10.70
2017,02,16,00,23,10.70
2017,02,16,00,24,10.70
2017,02,16,00,25,10.70
2017,02,16,00,26,10.70
2017,02,16,00,27,10.70
2017,02,16,00,28,10.70
2017,02,16,00,29,10.70
2017,02,16,00,30,10.80
2017,02,16,00,31,10.80
2017,02,16,00,32,10.80
2017,02,16,00,33,10.80
2017,02,16,00,34,10.80
2017,02,16,00,35,10.80
2017,02,16,00,36,10.90
2017,02,16,00,37,10.90
2017,02,16,00,38,11.00
2017,02,16,00,39,11.00
2017,02,16,00,40,11.00
2017,02,16,00,41,11.00
2017,02,16,00,42,10.90
2017,02,16,00,43,11.00
2017,02,16,00,44,10.90
2017,02,16,00,45,10.90
2017,02,16,00,46,10.90
2017,02,16,00,47,10.90
2017,02,16,00,48,11.00
2017,02,16,00,49,11.00
2017,02,16,00,50,11.00
2017,02,16,00,51,11.00
2017,02,16,00,52,11.00
2017,02,16,00,53,11.00
2017,02,16,00,54,11.10
2017,02,16,00,55,11.10
2017,02,16,00,56,11.10
2017,02,16,00,57,11.10
2017,02,16,00,58,11.10
2017,02,16,00,59,11.20
2017,02,16,01,00,11.20
2017,02,16,01,01,11.20
2017,02,16,01,02,11.20
2017,02,16,01,03,11.20
2017,02,16,01,04,11.20
2017,02,16,01,05,11.20
2017,02,16,01,06,11.10
2017,02,16,01,07,11.10
2017,02,16,01,08,11.10
2017,02,16,01,09,11.10
2017,02,16,01,10,11.10
2017,02,16,01,11,11.10
2017,02,16,01,12,11.10
2017,02,16,01,13,11.10
2017,02,16,01,14,11.10
2017,02,16,01,15,11.10
2017,02,16,01,16,11.10
2017,02,16,08,04,9.80
2017,02,16,08,05,9.80
2017,02,16,08,06,9.70
2017,02,16,08,07,9.70
2017,02,16,08,08,9.70
2017,02,16,08,09,9.70
2017,02,16,08,10,9.80
2017,02,16,08,11,9.80
2017,02,16,08,12,9.80
2017,02,16,08,13,9.80
2017,02,16,08,14,9.80
2017,02,16,08,15,9.80
2017,02,16,08,16,9.80
2017,02,16,08,17,9.80
2017,02,16,08,18,9.80
2017,02,16,08,19,9.80
2017,02,16,08,20,9.80
2017,02,16,08,21,9.80
2017,02,16,08,22,9.80
2017,02,16,08,23,9.80
2017,02,16,08,24,9.80
2017,02,16,08,25,9.80
2017,02,16,08,26,9.90
2017,02,16,08,27,9.90
2017,02,16,08,28,9.90
2017,02,16,08,29,9.90
2017,02,16,08,30,9.90
2017,02,16,08,31,9.90
2017,02,16,08,32,9.90
2017,02,16,08,33,9.90
2017,02,16,08,34,9.90
2017,02,16,08,35,9.90
2017,02,16,08,36,9.90
2017,02,16,08,37,9.90
2017,02,16,08,38,9.90
2017,02,16,08,39,9.90
2017,02,16,08,40,9.90
2017,02,16,08,41,9.90
2017,02,16,08,42,9.90
2017,02,16,08,43,9.90
2017,02,16,08,44,9.90
2017,02,16,08,45,9.90
2017,02,16,08,46,9.90
2017,02,16,08,47,9.90
2017,02,16,08,48,9.90
2017,02,16,08,49,9.80
2017,02,16,08,50,9.80
2017,02,16,08,51,9.80
2017,02,16,08,52,9.80
2017,02,16,08,53,9.80
2017,02,16,08,54,9.80
2017,02,16,08,55,9.80
2017,02,16,08,56,9.80
2017,02,16,08,57,9.80
2017,02,16,08,58,9.80
2017,02,16,08,59,9.80
2017,02,16,09,00,9.80
2017,02,16,09,01,9.90
2017,02,16,09,02,9.90
2017,02,16,09,03,9.90
2017,02,16,09,04,9.90
2017,02,16,09,05,9.90
2017,02,16,09,06,9.90
2017,02,16,09,07,9.90
2017,02,16,09,08,9.80
2017,02,16,09,09,9.90
2017,02,16,09,10,9.90
2017,02,16,09,11,9.90
2017,02,16,09,12,9.90
2017,02,16,09,13,9.90
2017,02,16,09,14,9.90
2017,02,16,09,15,9.90
2017,02,16,09,16,9.90
2017,02,16,09,17,9.90
2017,02,16,09,18,9.90
2017,02,16,09,19,9.90
2017,02,16,09,20,9.90
2017,02,16,09,21,9.90
2017,02,16,09,22,9.90
2017,02,16,09,23,9.90
2017,02,16,09,24,10.00
2017,02,16,09,25,10.00
2017,02,16,09,26,10.00
2017,02,16,09,27,10.00
2017,02,16,09,28,10.00
2017,02,16,09,29,10.00
2017,02,16,09,30,10.00
2017,02,16,09,31,10.00
2017,02,16,09,32,10.00
2017,02,16,09,33,10.10
2017,02,16,09,34,10.10
2017,02,16,09,35,10.10
2017,02,16,09,36,10.10
2017,02,16,09,37,10.10
2017,02,16,09,38,10.10
2017,02,16,09,39,10.10
2017,02,16,09,40,10.20
2017,02,16,09,41,10.20
2017,02,16,09,42,10.20
2017,02,16,09,43,10.20
2017,02,16,09,44,10.20
2017,02,16,09,45,10.30
2017,02,16,09,46,10.30
2017,02,16,09,47,10.30
2017,02,16,09,48,10.40
2017,02,16,09,49,10.40
2017,02,16,09,50,10.40
2017,02,16,09,51,10.50
2017,02,16,09,52,10.50
2017,02,16,09,53,10.60
2017,02,16,09,54,10.60
2017,02,16,09,55,10.60
2017,02,16,09,56,10.60
2017,02,16,09,57,10.60
2017,02,16,09,58,10.60
2017,02,16,09,59,10.60
2017,02,16,10,00,10.60
2017,02,16,10,01,10.60
2017,02,16,10,02,10.60
2017,02,16,10,03,10.60
2017,02,16,10,04,10.60
2017,02,16,10,05,10.50
2017,02,16,10,06,10.50
2017,02,16,10,07,10.40
2017,02,16,10,08,10.40
2017,02,16,10,09,10.40
2017,02,16,10,10,10.40
2017,02,16,10,11,10.40
2017,02,16,10,12,10.30
2017,02,16,10,13,10.30
2017,02,16,10,14,10.30
2017,02,16,10,15,10.30
2017,02,16,10,16,10.30
2017,02,16,10,17,10.30
2017,02,16,10,18,10.30
2017,02,16,10,19,10.40
2017,02,16,10,20,10.40
2017,02,16,10,21,10.50
2017,02,16,10,22,10.50
2017,02,16,10,23,10.50
2017,02,16,10,24,10.60
2017,02,16,10,25,10.60
2017,02,16,10,26,10.60
2017,02,16,10,27,10.70
2017,02,16,10,28,10.80
2017,02,16,10,29,10.80
2017,02,16,10,30,10.90
2017,02,16,10,31,10.90
2017,02,16,10,32,10.90
2017,02,16,10,33,10.90
2017,02,16,10,34,10.90
2017,02,16,10,35,10.90
2017,02,16,10,36,11.00
2017,02,16,10,37,11.00
2017,02,16,10,38,11.00
2017,02,16,10,39,10.90
2017,02,16,10,40,10.90
2017,02,16,10,41,10.90
2017,02,16,10,42,10.90
2017,02,16,10,43,10.90
2017,02,16,10,44,10.80
2017,02,16,10,45,10.80
2017,02,16,10,46,10.80
2017,02,16,10,47,10.80
2017,02,16,10,48,10.80
2017,02,16,10,49,10.70
2017,02,16,10,50,10.70
2017,02,16,10,51,10.70
2017,02,16,10,52,10.80
2017,02,16,10,53,10.80
2017,02,16,10,54,10.80
2017,02,16,10,55,10.90
2017,02,16,10,56,10.90
2017,02,16,10,57,11.00
2017,02,16,10,58,11.00
2017,02,16,10,59,11.10
2017,02,16,11,00,11.10
2017,02,16,11,01,11.20
2017,02,16,11,02,11.30
2017,02,16,11,03,11.30
2017,02,16,11,04,11.40
2017,02,16,11,05,11.40
2017,02,16,11,06,11.50
2017,02,16,11,07,11.60
2017,02,16,11,08,11.70
2017,02,16,11,09,11.70
2017,02,16,11,10,11.70
2017,02,16,11,11,11.60
2017,02,16,11,12,11.60
2017,02,16,11,13,11.60
2017,02,16,11,14,11.50
2017,02,16,11,15,11.50
2017,02,16,11,16,11.50
2017,02,16,11,17,11.50
2017,02,16,11,18,11.50
2017,02,16,11,19,11.50
2017,02,16,11,20,11.50
2017,02,16,11,21,11.60
2017,02,16,11,22,11.60
2017,02,16,11,23,11.60
2017,02,16,11,24,11.60
2017,02,16,11,25,11.60
2017,02,16,11,26,11.60
2017,02,16,11,27,11.60
2017,02,16,11,28,11.70
2017,02,16,11,29,11.70
2017,02,16,11,30,11.80
2017,02,16,11,31,11.80
2017,02,16,11,32,11.90
2017,02,16,11,33,12.00
2017,02,16,11,34,12.10
2017,02,16,11,35,12.20
2017,02,16,11,36,12.20
2017,02,16,11,37,12.20
2017,02,16,11,38,12.20
2017,02,16,11,39,12.20
2017,02,16,11,40,12.20
2017,02,16,11,41,12.10
2017,02,16,11,42,12.10
2017,02,16,11,43,12.10
2017,02,16,11,44,12.20
2017,02,16,11,45,12.20
2017,02,16,11,46,12.20
2017,02,16,11,47,12.20
2017,02,16,11,48,12.30
2017,02,16,11,49,12.30
2017,02,16,11,50,12.30
2017,02,16,11,51,12.30
2017,02,16,11,52,12.30
2017,02,16,11,53,12.40
2017,02,16,11,54,12.40
2017,02,16,11,55,12.40
2017,02,16,11,56,12.40
2017,02,16,11,57,12.50
2017,02,16,11,58,12.50
2017,02,16,11,59,12.50
2017,02,16,12,00,12.50
2017,02,16,12,01,12.50
2017,02,16,12,02,12.50
2017,02,16,12,03,12.60
2017,02,16,12,04,12.60
2017,02,16,12,05,12.60
2017,02,16,12,06,12.60
2017,02,16,12,07,12.60
2017,02,16,12,08,12.60
2017,02,16,12,09,12.70
2017,02,16,12,10,12.80
2017,02,16,12,11,12.80
2017,02,16,12,12,12.80
2017,02,16,12,13,12.90
2017,02,16,12,14,12.90
2017,02,16,12,15,12.80
2017,02,16,12,16,12.70
2017,02,16,12,17,12.50
2017,02,16,12,18,12.50
2017,02,16,12,19,12.40
2017,02,16,12,20,12.30
2017,02,16,12,21,12.30
2017,02,16,12,22,12.20
2017,02,16,12,23,12.10
2017,02,16,12,24,12.10
2017,02,16,12,25,12.00
2017,02,16,12,26,11.90
2017,02,16,12,27,11.90
2017,02,16,12,28,11.80
2017,02,16,12,29,11.80
2017,02,16,12,30,11.80
2017,02,16,12,31,11.80
2017,02,16,12,32,11.90
2017,02,16,12,33,11.90
2017,02,16,12,34,11.90
2017,02,16,12,35,12.00
2017,02,16,12,36,12.00
2017,02,16,12,37,12.00
2017,02,16,12,38,12.00
2017,02,16,12,39,11.90
2017,02,16,12,40,11.90
2017,02,16,12,41,11.90
2017,02,16,12,42,11.80
2017,02,16,12,43,11.80
2017,02,16,12,44,11.70
2017,02,16,12,45,11.70
2017,02,16,12,46,11.70
2017,02,16,12,47,11.70
2017,02,16,12,48,11.60
2017,02,16,12,49,11.60
2017,02,16,12,50,11.60
2017,02,16,12,51,11.60
2017,02,16,12,52,11.60
2017,02,16,12,53,11.60
2017,02,16,12,54,11.60
2017,02,16,12,55,11.60
2017,02,16,12,56,11.60
2017,02,16,12,57,11.60
2017,02,16,12,58,11.60
2017,02,16,12,59,11.60
2017,02,16,13,00,11.60
2017,02,16,13,01,11.60
2017,02,16,13,02,11.60
2017,02,16,13,03,11.60
2017,02,16,13,04,11.60
2017,02,16,13,05,11.60
2017,02,16,13,06,11.60
2017,02,16,13,07,11.60
2017,02,16,13,08,11.60
2017,02,16,13,09,11.60
2017,02,16,13,10,11.60
2017,02,16,13,11,11.60
2017,02,16,13,12,11.60
2017,02,16,13,13,11.70
2017,02,16,13,14,11.70
2017,02,16,13,15,11.70
2017,02,16,13,16,11.80
2017,02,16,13,17,11.80
2017,02,16,13,18,11.70
2017,02,16,13,19,11.70
2017,02,16,13,20,11.80
2017,02,16,13,21,11.80
2017,02,16,13,22,11.80
2017,02,16,13,23,11.80
2017,02,16,13,24,11.80
2017,02,16,13,25,11.80
2017,02,16,13,26,11.80
2017,02,16,13,27,11.90
2017,02,16,13,28,11.90
2017,02,16,13,29,11.90
2017,02,16,13,30,11.90
2017,02,16,13,31,11.90
2017,02,16,13,32,11.90
2017,02,16,13,33,11.90
2017,02,16,13,34,11.90
2017,02,16,13,35,11.90
2017,02,16,13,36,11.90
2017,02,16,13,37,12.00
2017,02,16,13,38,12.00
2017,02,16,13,39,12.00
2017,02,16,13,40,12.00
2017,02,16,13,41,12.00
2017,02,16,13,42,12.10
2017,02,16,13,43,12.10
2017,02,16,13,44,12.10
2017,02,16,13,45,12.10
2017,02,16,13,46,12.10
2017,02,16,13,47,12.10
2017,02,16,13,48,12.20
2017,02,16,13,49,12.20
2017,02,16,13,50,12.20
2017,02,16,13,51,12.30
2017,02,16,13,52,12.30
2017,02,16,13,53,12.30
2017,02,16,13,54,12.30
2017,02,16,13,55,12.20
2017,02,16,13,56,12.20
2017,02,16,13,57,12.20
2017,02,16,13,58,12.20
2017,02,16,13,59,12.20
2017,02,16,14,00,12.20
2017,02,16,14,01,12.20
2017,02,16,14,02,12.20
2017,02,16,14,03,12.10
2017,02,16,14,04,12.10
2017,02,16,14,05,12.00
2017,02,16,14,06,12.00
2017,02,16,14,07,11.90
2017,02,16,14,08,11.90
2017,02,16,14,09,11.80
2017,02,16,14,10,11.80
2017,02,16,14,11,11.80
2017,02,16,14,12,11.80
2017,02,16,14,13,11.80
2017,02,16,14,14,11.80
2017,02,16,14,15,11.80
2017,02,16,14,16,11.80
2017,02,16,14,17,11.90
2017,02,16,14,18,11.90
2017,02,16,14,19,11.90
2017,02,16,14,20,11.80
2017,02,16,14,21,11.80
2017,02,16,14,22,11.80
2017,02,16,14,23,11.80
2017,02,16,14,24,11.80
2017,02,16,14,25,11.80
2017,02,16,14,26,11.80
2017,02,16,14,27,11.80
2017,02,16,14,28,11.80
2017,02,16,14,29,11.80
2017,02,16,14,30,11.70
2017,02,16,14,31,11.70
2017,02,16,14,32,11.70
2017,02,16,14,33,11.80
2017,02,16,14,34,11.80
2017,02,16,14,35,11.90
2017,02,16,14,36,11.90
2017,02,16,14,37,12.00
2017,02,16,14,38,12.10
2017,02,16,14,39,12.10
2017,02,16,14,40,12.00
2017,02,16,14,41,12.00
2017,02,16,14,42,12.10
2017,02,16,14,43,12.10
2017,02,16,14,44,12.10
2017,02,16,14,45,12.10
2017,02,16,14,46,12.10
2017,02,16,14,47,12.10
2017,02,16,14,48,12.10
2017,02,16,14,49,12.20
2017,02,16,14,50,12.20
2017,02,16,14,51,12.20
2017,02,16,14,52,12.30
2017,02,16,14,53,12.40
2017,02,16,14,54,12.50
2017,02,16,14,55,12.60
2017,02,16,14,56,12.70
2017,02,16,14,57,12.90
2017,02,16,14,58,12.90
2017,02,16,14,59,13.00
2017,02,16,15,00,13.00
2017,02,16,15,01,13.10
2017,02,16,15,02,13.10
2017,02,16,15,03,13.10
2017,02,16,15,04,13.10
2017,02,16,15,05,13.10
2017,02,16,15,06,13.10
2017,02,16,15,07,13.10
2017,02,16,15,08,13.00
2017,02,16,15,09,13.00
2017,02,16,15,10,13.00
2017,02,16,15,11,13.00
2017,02,16,15,12,12.90
2017,02,16,15,13,12.80
2017,02,16,15,14,12.70
2017,02,16,15,15,12.60
2017,02,16,15,16,12.60
2017,02,16,15,17,12.60
2017,02,16,15,18,12.60
2017,02,16,15,19,12.70
2017,02,16,15,20,12.70
2017,02,16,15,21,12.70
2017,02,16,15,22,12.70
2017,02,16,15,23,12.70
2017,02,16,15,24,12.70
2017,02,16,15,25,12.60
2017,02,16,15,26,12.60
2017,02,16,15,27,12.50
2017,02,16,15,28,12.40
2017,02,16,15,29,12.40
2017,02,16,15,30,12.40
2017,02,16,15,31,12.40
2017,02,16,15,32,12.40
2017,02,16,15,33,12.30
2017,02,16,15,34,12.30
2017,02,16,15,35,12.30
2017,02,16,15,36,12.30
2017,02,16,15,37,12.20
2017,02,16,15,38,12.20
2017,02,16,15,39,12.10
2017,02,16,15,40,12.10
2017,02,16,15,41,12.00
2017,02,16,15,42,12.00
2017,02,16,15,43,12.00
2017,02,16,15,44,12.00
2017,02,16,15,45,12.00
2017,02,16,15,46,12.00
2017,02,16,15,47,11.90
2017,02,16,15,48,11.90
2017,02,16,15,49,11.80
2017,02,16,15,50,11.70
2017,02,16,15,51,11.70
2017,02,16,15,52,11.60
2017,02,16,15,53,11.50
2017,02,16,15,54,11.50
2017,02,16,15,55,11.40
2017,02,16,15,56,11.30
2017,02,16,15,57,11.30
2017,02,16,15,58,11.20
2017,02,16,15,59,11.20
2017,02,16,16,00,11.10
2017,02,16,16,01,11.10
2017,02,16,16,02,11.00
2017,02,16,16,03,11.00
2017,02,16,16,04,10.90
2017,02,16,16,05,10.90
2017,02,16,16,06,10.90
2017,02,16,16,07,10.90
2017,02,16,16,08,10.90
2017,02,16,16,09,10.80
2017,02,16,16,10,10.80
2017,02,16,16,11,10.80
2017,02,16,16,12,10.80
2017,02,16,16,13,10.80
2017,02,16,16,14,10.80
2017,02,16,16,15,10.80
2017,02,16,16,16,10.70
2017,02,16,16,17,10.70
2017,02,16,16,18,10.70
2017,02,16,16,19,10.70
2017,02,16,16,20,10.70
2017,02,16,16,21,10.70
2017,02,16,16,22,10.70
2017,02,16,16,23,10.70
2017,02,16,16,24,10.70
2017,02,16,16,25,10.70
2017,02,16,16,26,10.70
2017,02,16,16,27,10.70
2017,02,16,16,28,10.70
2017,02,16,16,29,10.70
2017,02,16,16,30,10.70
2017,02,16,16,31,10.70
2017,02,16,16,32,10.80
2017,02,16,16,33,10.80
2017,02,16,16,34,10.80
2017,02,16,16,35,10.80
2017,02,16,16,36,10.80
2017,02,16,16,37,10.80
2017,02,16,16,38,10.80
2017,02,16,16,39,10.80
2017,02,16,16,40,10.80
2017,02,16,16,41,10.90
2017,02,16,16,42,10.80
2017,02,16,16,43,10.80
2017,02,16,16,44,10.80
2017,02,16,16,45,10.80
2017,02,16,16,46,10.80
2017,02,16,16,47,10.80
2017,02,16,16,48,10.80
2017,02,16,16,49,10.80
2017,02,16,16,50,10.80
2017,02,16,16,51,10.80
2017,02,16,16,52,10.80
2017,02,16,16,53,10.80
2017,02,16,16,54,10.70
2017,02,16,16,55,10.70
2017,02,16,16,56,10.70
2017,02,16,16,57,10.70
2017,02,16,16,58,10.70
2017,02,16,16,59,10.60
2017,02,16,17,00,10.60
2017,02,16,17,01,10.60
2017,02,16,17,02,10.60
2017,02,16,17,03,10.50
2017,02,16,17,04,10.50
2017,02,16,17,05,10.40
2017,02,16,17,06,10.40
2017,02,16,17,07,10.40
2017,02,16,17,08,10.30
2017,02,16,17,09,10.30
2017,02,16,17,10,10.30
2017,02,16,17,11,10.30
2017,02,16,17,12,10.20
2017,02,16,17,13,10.20
2017,02,16,17,14,10.20
2017,02,16,17,15,10.20
2017,02,16,17,16,10.20
2017,02,16,17,17,10.10
2017,02,16,17,18,10.10
2017,02,16,17,19,10.10
2017,02,16,17,20,10.10
2017,02,16,17,21,10.00
2017,02,16,17,22,10.00
2017,02,16,17,23,10.00
2017,02,16,17,24,9.90
2017,02,16,17,25,9.90
2017,02,16,17,26,9.90
2017,02,16,17,27,9.80
2017,02,16,17,28,9.80
2017,02,16,17,29,9.80
2017,02,16,17,30,9.80
2017,02,16,17,31,9.80
2017,02,16,17,32,9.70
2017,02,16,17,33,9.70
2017,02,16,17,34,9.70
2017,02,16,17,35,9.60
2017,02,16,17,36,9.60
2017,02,16,17,37,9.60
2017,02,16,17,38,9.50
2017,02,16,17,39,9.50
2017,02,16,17,40,9.40
2017,02,16,17,41,9.40
2017,02,16,17,42,9.30
2017,02,16,17,43,9.30
2017,02,16,17,44,9.30
2017,02,16,17,45,9.30
2017,02,16,17,46,9.30
2017,02,16,17,47,9.30
2017,02,16,17,48,9.30
2017,02,16,17,49,9.30
2017,02,16,17,50,9.30
2017,02,16,17,51,9.30
2017,02,16,17,52,9.30
2017,02,16,17,53,9.30
2017,02,16,17,54,9.30
2017,02,16,17,55,9.30
2017,02,16,17,56,9.20
2017,02,16,17,57,9.20
2017,02,16,17,58,9.10
2017,02,16,17,59,9.10
2017,02,16,18,00,9.10
2017,02,16,18,01,9.10
2017,02,16,18,02,9.10
2017,02,16,18,03,9.00
2017,02,16,18,04,9.00
2017,02,16,18,05,9.00
2017,02,16,18,06,8.90
2017,02,16,18,07,8.90
2017,02,16,18,08,8.90
2017,02,16,18,09,8.90
2017,02,16,18,10,8.80
2017,02,16,18,11,8.80
2017,02,16,18,12,8.80
2017,02,16,18,13,8.80
2017,02,16,18,14,8.70
2017,02,16,18,15,8.70
2017,02,16,18,16,8.70
2017,02,16,18,17,8.70
2017,02,16,18,18,8.70
2017,02,16,18,19,8.70
2017,02,16,18,20,8.70
2017,02,16,18,21,8.60
2017,02,16,18,22,8.60
2017,02,16,18,23,8.50
2017,02,16,18,24,8.50
2017,02,16,18,25,8.40
2017,02,16,18,26,8.30
2017,02,16,18,27,8.30
2017,02,16,18,28,8.20
2017,02,16,18,29,8.20
2017,02,16,18,30,8.10
2017,02,16,18,31,8.10
2017,02,16,18,32,8.10
2017,02,16,18,33,8.00
2017,02,16,18,34,8.00
2017,02,16,18,35,8.00
2017,02,16,18,36,8.00
2017,02,16,18,37,8.10
2017,02,16,18,38,8.10
2017,02,16,18,39,8.10
2017,02,16,18,40,8.10
2017,02,16,18,41,8.10
2017,02,16,18,42,8.10
2017,02,16,18,43,8.10
2017,02,16,18,44,8.10
2017,02,16,18,45,8.10
2017,02,16,18,46,8.10
2017,02,16,18,47,8.10
2017,02,16,18,48,8.10
2017,02,16,18,49,8.10
2017,02,16,18,50,8.10
2017,02,16,18,51,8.00
2017,02,16,18,52,8.00
2017,02,16,18,53,7.90
2017,02,16,18,54,7.90
2017,02,16,18,55,7.80
2017,02,16,18,56,7.70
2017,02,16,18,57,7.70
2017,02,16,18,58,7.60
2017,02,16,18,59,7.60
2017,02,16,19,00,7.50
2017,02,16,19,01,7.50
2017,02,16,19,02,7.50
2017,02,16,19,03,7.40
2017,02,16,19,04,7.40
2017,02,16,19,05,7.40
2017,02,16,19,06,7.30
2017,02,16,19,07,7.30
2017,02,16,19,08,7.30
2017,02,16,19,09,7.30
2017,02,16,19,10,7.30
2017,02,16,19,11,7.30
2017,02,16,19,12,7.30
2017,02,16,19,13,7.30
2017,02,16,19,14,7.30
2017,02,16,19,15,7.30
2017,02,16,19,16,7.40
2017,02,16,19,17,7.40
2017,02,16,19,18,7.50
2017,02,16,19,19,7.60
2017,02,16,19,20,7.60
2017,02,16,19,21,7.70
2017,02,16,19,22,7.80
2017,02,16,19,23,7.90
2017,02,16,19,24,7.90
2017,02,16,19,25,8.00
2017,02,16,19,26,8.10
2017,02,16,19,27,8.10
2017,02,16,19,28,8.20
2017,02,16,19,29,8.20
2017,02,16,19,30,8.20
2017,02,16,19,31,8.20
2017,02,16,19,32,8.30
2017,02,16,19,33,8.40
2017,02,16,19,34,8.50
2017,02,16,19,35,8.50
2017,02,16,19,36,8.60
2017,02,16,19,37,8.60
2017,02,16,19,38,8.60
2017,02,16,19,39,8.70
2017,02,16,19,40,8.70
2017,02,16,19,41,8.80
2017,02,16,19,42,8.80
2017,02,16,19,43,8.80
2017,02,16,19,44,8.80
2017,02,16,19,45,8.80
2017,02,16,19,46,8.80
2017,02,16,19,47,8.80
2017,02,16,19,48,8.70
2017,02,16,19,49,8.70
2017,02,16,19,50,8.70
2017,02,16,19,51,8.70
2017,02,16,19,52,8.70
2017,02,16,19,53,8.70
2017,02,16,19,54,8.70
2017,02,16,19,55,8.70
2017,02,16,19,56,8.70
2017,02,16,19,57,8.70
2017,02,16,19,58,8.70
2017,02,16,19,59,8.70
2017,02,16,20,00,8.70
2017,02,16,20,01,8.70
2017,02,16,20,02,8.80
2017,02,16,20,03,8.80
2017,02,16,20,04,8.90
2017,02,16,20,05,8.90
2017,02,16,20,06,8.90
2017,02,16,20,07,8.90
2017,02,16,20,08,8.90
2017,02,16,20,09,8.90
2017,02,16,20,10,8.90
2017,02,16,20,11,9.00
2017,02,16,20,12,9.00
2017,02,16,20,13,9.10
2017,02,16,20,14,9.20
2017,02,16,20,15,9.20
2017,02,16,20,16,9.20
2017,02,16,20,17,9.30
2017,02,16,20,18,9.30
2017,02,16,20,19,9.30
2017,02,16,20,20,9.30
2017,02,16,20,21,9.30
2017,02,16,20,22,9.30
2017,02,16,20,23,9.30
2017,02,16,20,24,9.30
2017,02,16,20,25,9.30
2017,02,16,20,26,9.30
2017,02,16,20,27,9.30
2017,02,16,20,28,9.30
2017,02,16,20,29,9.30
2017,02,16,20,30,9.30
2017,02,16,20,31,9.30
2017,02,16,20,32,9.30
2017,02,16,20,33,9.30
2017,02,16,20,34,9.30
2017,02,16,20,35,9.30
2017,02,16,20,36,9.30
2017,02,16,20,37,9.30
2017,02,16,20,38,9.20
2017,02,16,20,39,9.20
2017,02,16,20,40,9.20
2017,02,16,20,41,9.20
2017,02,16,20,42,9.20
2017,02,16,20,43,9.20
2017,02,16,20,44,9.20
2017,02,16,20,45,9.20
2017,02,16,20,46,9.10
2017,02,16,20,47,9.10
2017,02,16,20,48,9.10
2017,02,16,20,49,9.10
2017,02,16,20,50,9.10
2017,02,16,20,51,9.10
2017,02,16,20,52,9.20
2017,02,16,20,53,9.20
2017,02,16,20,54,9.20
2017,02,16,20,55,9.20
2017,02,16,20,56,9.20
2017,02,16,20,57,9.20
2017,02,16,20,58,9.20
2017,02,16,20,59,9.20
2017,02,16,21,00,9.20
2017,02,16,21,01,9.20
2017,02,16,21,02,9.20
2017,02,16,21,03,9.20
2017,02,16,21,04,9.20
2017,02,16,21,05,9.20
2017,02,16,21,06,9.20
2017,02,16,21,07,9.20
2017,02,16,21,08,9.20
2017,02,16,21,09,9.20
2017,02,16,21,10,9.20
2017,02,16,21,11,9.10
2017,02,16,21,12,9.10
2017,02,16,21,13,9.10
2017,02,16,21,14,9.10
2017,02,16,21,15,9.10
2017,02,16,21,16,9.10
2017,02,16,21,17,9.00
2017,02,16,21,18,9.00
2017,02,16,21,19,9.00
2017,02,16,21,20,8.90
2017,02,16,21,21,8.90
2017,02,16,21,22,8.90
2017,02,16,21,23,8.80
2017,02,16,21,24,8.80
2017,02,16,21,25,8.80
2017,02,16,21,26,8.70
2017,02,16,21,27,8.70
2017,02,16,21,28,8.60
2017,02,16,21,29,8.60
2017,02,16,21,30,8.60
2017,02,16,21,31,8.60
2017,02,16,21,32,8.60
2017,02,16,21,33,8.60
2017,02,16,21,34,8.60
2017,02,16,21,35,8.70
2017,02,16,21,36,8.70
2017,02,16,21,37,8.80
2017,02,16,21,38,8.80
2017,02,16,21,39,8.80
2017,02,16,21,40,8.90
2017,02,16,21,41,8.90
2017,02,16,21,42,8.90
2017,02,16,21,43,8.90
2017,02,16,21,44,8.90
2017,02,16,21,45,8.90
2017,02,16,21,46,8.90
2017,02,16,21,47,8.90
2017,02,16,21,48,8.90
2017,02,16,21,49,8.90
2017,02,16,21,50,8.80
2017,02,16,21,51,8.80
2017,02,16,21,52,8.80
2017,02,16,21,53,8.80
2017,02,16,21,54,8.80
2017,02,16,21,55,8.80
2017,02,16,21,56,8.70
2017,02,16,21,57,8.70
2017,02,16,21,58,8.70
2017,02,16,21,59,8.60
2017,02,16,22,00,8.60
2017,02,16,22,01,8.60
2017,02,16,22,02,8.50
2017,02,16,22,03,8.50
2017,02,16,22,04,8.40
2017,02,16,22,05,8.40
2017,02,16,22,06,8.30
2017,02,16,22,07,8.30
2017,02,16,22,08,8.20
2017,02,16,22,09,8.20
2017,02,16,22,10,8.10
2017,02,16,22,11,8.00
2017,02,16,22,12,7.90
2017,02,16,22,13,7.80
2017,02,16,22,14,7.80
2017,02,16,22,15,7.70
2017,02,16,22,16,7.70
2017,02,16,22,17,7.60
2017,02,16,22,18,7.60
2017,02,16,22,19,7.60
2017,02,16,22,20,7.60
2017,02,16,22,21,7.60
2017,02,16,22,22,7.60
2017,02,16,22,23,7.60
2017,02,16,22,24,7.70
2017,02,16,22,25,7.70
2017,02,16,22,26,7.80
2017,02,16,22,27,7.80
2017,02,16,22,28,7.80
2017,02,16,22,29,7.80
2017,02,16,22,30,7.90
2017,02,16,22,31,7.90
2017,02,16,22,32,7.90
2017,02,16,22,33,7.90
2017,02,16,22,34,8.00
2017,02,16,22,35,8.00
2017,02,16,22,36,8.00
2017,02,16,22,37,8.10
2017,02,16,22,38,8.10
2017,02,16,22,39,8.10
2017,02,16,22,40,8.10
2017,02,16,22,41,8.10
2017,02,16,22,42,8.10
2017,02,16,22,43,8.10
2017,02,16,22,44,8.10
2017,02,16,22,45,8.10
2017,02,16,22,46,8.20
2017,02,16,22,47,8.20
2017,02,16,22,48,8.20
2017,02,16,22,49,8.30
2017,02,16,22,50,8.30
2017,02,16,22,51,8.30
2017,02,16,22,52,8.30
2017,02,16,22,53,8.30
2017,02,16,22,54,8.30
2017,02,16,22,55,8.30
2017,02,16,22,56,8.30
2017,02,16,22,57,8.30
2017,02,16,22,58,8.30
2017,02,16,22,59,8.30
2017,02,16,23,00,8.30
2017,02,16,23,01,8.30
2017,02,16,23,02,8.30
2017,02,16,23,03,8.30
2017,02,16,23,04,8.30
2017,02,16,23,05,8.30
2017,02,16,23,06,8.30
2017,02,16,23,07,8.30
2017,02,16,23,08,8.30
2017,02,16,23,09,8.30
2017,02,16,23,10,8.30
2017,02,16,23,11,8.30
2017,02,16,23,12,8.30
2017,02,16,23,13,8.30
2017,02,16,23,14,8.30
2017,02,16,23,15,8.30
2017,02,16,23,16,8.30
2017,02,16,23,17,8.30
2017,02,16,23,18,8.30
2017,02,16,23,19,8.20
2017,02,16,23,20,8.20
2017,02,16,23,21,8.20
2017,02,16,23,22,8.20
2017,02,16,23,23,8.10
2017,02,16,23,24,8.10
2017,02,16,23,25,8.10
2017,02,16,23,26,8.10
2017,02,16,23,27,8.10
2017,02,16,23,28,8.10
2017,02,16,23,29,8.00
2017,02,16,23,30,8.00
2017,02,16,23,31,8.00
2017,02,16,23,32,8.00
2017,02,16,23,33,8.00
2017,02,16,23,34,8.00
2017,02,16,23,35,8.00
2017,02,16,23,36,8.00
2017,02,16,23,37,7.90
2017,02,16,23,38,7.90
2017,02,16,23,39,7.90
2017,02,16,23,40,7.90
2017,02,16,23,41,7.90
2017,02,16,23,42,7.90
2017,02,16,23,43,7.90
2017,02,16,23,44,7.90
2017,02,16,23,45,7.90
2017,02,16,23,46,7.90
2017,02,16,23,47,7.90
2017,02,16,23,48,7.90
2017,02,16,23,49,7.90
2017,02,16,23,50,7.90
2017,02,16,23,51,7.90
2017,02,16,23,52,7.90
2017,02,16,23,53,7.90
2017,02,16,23,54,7.90
2017,02,16,23,55,7.90
2017,02,16,23,56,8.00
2017,02,16,23,57,7.90
2017,02,16,23,58,7.90
2017,02,16,23,59,7.90
